348  
ASCA44 KEWX 272020  
RWRMX  
 
LATIN AMERICA AND CARIBBEAN REGIONAL WEATHER ROUNDUP  
NATIONAL WEATHER SERVICE AUSTIN/SAN ANTONIO TX  
300 PM CDT THU JUL 27 2017  
 
NOTE: "FAIR" INDICATED FEW OR NO CLOUDS BELOW 12,000 FEET WITH NO  
SIGNIFICANT WEATHER AND/OR S TO VISIBILITY
.  
 
BAJA CALIFORNIA  
 
CITY SKY/WX TMP DP RH WIND PRES REMARKS
 
LORETO LGT RAIN 82 73 74 CALM 29.87F  
MEXICALI SUNNY 106 50 15 NW5 29.80F HX 103  
S.J. DEL CABO CLOUDY 82 68 61 SW12 29.95R  
TIJUANA MOSUNNY 79 66 65 W13 29.95F  
 
NORTHWESTERN MEXICO  
 
CITY SKY/WX TMP DP RH WIND PRES REMARKS
 
CULIACAN CLOUDY 86 75 70 S6 29.90S HX 95  
DURANGO CLOUDY 73 54 49 CALM 30.22F THUNDER  
GUAYMAS MOSUNNY 91 79 66 S12 29.82F HX 107  
HERMOSILLO MOSUNNY 97 72 44 SE6 29.90F HX 105  
CD. JUAREZ LGT RAIN 79 63 57 NE16 30.09F  
LOS MOCHIS CLOUDY 88 70 55 SE10 29.89S HX 92  
OBREGON MOSUNNY 91 68 46 W2 29.84F HX 95  
 
NORTHEASTERN MEXICO  
 
CITY SKY/WX TMP DP RH WIND PRES REMARKS
 
CHIHUAHUA MOSUNNY 84 57 39 CALM 30.14F  
MONCLOVA PTSUNNY 93 63 36 E8 29.99F HX 94  
MONTERREY MOSUNNY 93 57 29 SE14 29.96F HX 92  
NUEVO LAREDO SUNNY 99 64 32 SE18 29.95F HX 101  
PIEDRAS NEGRAS MOSUNNY 97 68 38 SE14 29.97F HX 101  
REYNOSA MOSUNNY 95 61 31 E12G23 29.96F HX 95  
SALTILLO PTSUNNY 86 64 48 NE17 30.20F  
TORREON PTSUNNY 90 55 31 NE14 30.08F  
CD. VICTORIA MOSUNNY 91 61 35 S18 29.99F HX 91  
 
WESTERN MEXICO  
 
CITY SKY/WX TMP DP RH WIND PRES REMARKS
 
AGUASCALIENTES PTSUNNY 73 54 49 NW2 30.30F  
COLIMA MOSUNNY 82 70 65 SW6 30.02F  
DEL BAJIO MOSUNNY 77 57 50 S6 30.30F  
GUADALAJARA PTSUNNY 79 54 41 CALM 30.19F  
MANZANILLO MOSUNNY 91 77 62 SW12 29.86F HX 105  
MAZATLAN PTSUNNY 82 73 74 W5 29.92F  
P. VALLARTA CLOUDY 88 77 70 SW10 29.89F HX 100  
URUAPAN PTSUNNY 77 61 57 SE9 30.18F  
ZACATECAS PTSUNNY 73 52 46 S12 30.30F  
 
CENTRAL MEXICO  
 
CITY SKY/WX TMP DP RH WIND PRES REMARKS
 
CUERNAVACA N/A N/A N/A N/A MISG N/A  
MEXICO CITY PTSUNNY 73 46 38 SE5 30.31F HAZE  
MORELIA MOSUNNY 73 59 60 SE9 30.24F  
POZA RICA PTSUNNY 88 79 74 CALM 30.03F HX 102  
PUEBLA PTSUNNY 73 50 43 SE7 30.33F  
QUERETARO MOSUNNY 73 57 56 E5 30.31F  
S. LUIS POTOSI PTSUNNY 75 54 46 NE15 30.26F  
TAMPICO MOSUNNY 88 73 62 E10 30.00F HX 96  
TOLUCA PTSUNNY 72 50 46 E6 30.38F  
 
SOUTHERN MEXICO  
 
CITY SKY/WX TMP DP RH WIND PRES REMARKS
 
ACAPULCO MOSUNNY 88 77 70 SW10 29.85S HX 100  
B. DE HUATULCO CLOUDY N/A N/A N/A S12 29.85F  
OAXACA CLOUDY 77 54 44 CALM 30.21F  
P. ESCONDIDO PTSUNNY 88 79 74 SW10 29.93F HX 102  
VERACRUZ PTSUNNY 84 77 79 NE7 29.99F HX 94  
 
YUCATAN PENINSULA  
 
CITY SKY/WX TMP DP RH WIND PRES REMARKS
 
CAMPECHE MOSUNNY 90 79 70 N12 29.92F HX 105  
CANCUN MOSUNNY 90 75 62 NE12 29.96F HX 100  
CHETUMAL MOSUNNY 88 77 70 E6 29.92F HX 100  
CD. DEL CARMEN PTSUNNY N/A N/A N/A N12 29.97S  
COZUMEL MOSUNNY 90 75 62 NE13 29.94F HX 100  
MERIDA PTSUNNY 82 75 78 NE5G16 29.97S  
MINATITLAN PTSUNNY 86 73 66 N12 29.93F HX 93  
TAPACHULA PTSUNNY 90 77 66 SW6 29.81F HX 102  
TUX. GUTIERREZ MOSUNNY 93 68 43 CALM 29.92F HX 97  
VILLAHERMOSA PTSUNNY 93 73 52 E13 29.94F HX 102  
 
CENTRAL AMERICA  
 
CITY SKY/WX TMP DP RH WIND PRES REMARKS
 
BELIZE CITY MOSUNNY 90 79 70 E10 29.90F HX 105  
MANAGUA PTCLDY 88 73 62 E12 29.80F HX 96  
 
CARIBBEAN  
 
CITY SKY/WX TMP DP RH WIND PRES REMARKS
 
ARUBA PTSUNNY 88 77 70 E17 29.80F HX 100  
CURACAO MOSUNNY 86 75 70 E15 29.83F HX 95  
KINGSTON MOSUNNY 90 75 62 SE25 29.86S HX 100  
NASSAU MOSUNNY 93 77 59 SE7 29.98F HX 107  
SAN JUAN MOSUNNY 88 77 70 E15 29.92F HX 100  
SANTO DOMINGO MOSUNNY 90 77 66 S5 29.89S HX 102  
ST. CROIX MOSUNNY 90 75 62 SE13 29.93 HX 100  
ST. KITTS MOSUNNY 88 75 66 NE12 29.92F HX 97  
ST. MAARTEN MOSUNNY 88 77 70 E9 29.92F HX 100  
ST. THOMAS MOSUNNY 88 75 66 SE10 29.92 HX 97  
 

 
 
 
 
CLICK HERE TO GO TO PREVIOUS BULLETINS.

The Nexlab HPC Page Main Text Page